Torna al catalogo

COSMOS 2251 DEB

AttivoLEO
NORAD 35668·DEBRIS·🇷🇺 Russia

Lanciato Jun 16, 1993 da Plesetsk Cosmodrome

Loading…

Prossimi Passaggi (prossime 24 ore)

TLE

AggiornatoSource: Space-Track

Epoca: Sep 14, 2026, 02:47 UTC

1 35668U 93036APK 26257.11653754  .00000873  00000-0  16231-3 0  9997
2 35668  74.0443  51.5954 0080843  86.5380 274.5031 14.64644038916787

Traccia COSMOS 2251 DEB in tempo reale con AllMySat

Download on the App Store